Weather History for Dillingham, AK

Change the Weather History Date:

Wednesday, November 21, 2012

  Actual Average Record
Temperature  
Mean Temperature 12 °F -  
Max Temperature 19 °F 30 °F 41 °F (2000)
Min Temperature 6 °F 20 °F -7 °F (2011)
Degree Days  
Heating Degree Days 52    
Moisture  
Dew Point -1 °F    
Average Humidity 59    
Maximum Humidity 67    
Minimum Humidity 31    
Precipitation  
Precipitation 0.00 in - - ()
Sea Level Pressure  
Sea Level Pressure 29.87 in    
Wind  
Wind Speed 13 mph (NW)    
Max Wind Speed 24 mph    
Max Gust Speed 38 mph    
Visibility 10 miles    
Events      
Averages and records for this station are not official NWS values.
T = Trace of Precipitation, MM = Missing Value Source: NWS Daily Summary

Daily Weather History Graph

Daily Weather History Graph

Search for Another Location

Airport:

Trip Planner

Search our weather history database for the weather conditions in past years. The results will help you decide how hot, cold, wet, or windy it might be!

Date:

Astronomy

Nov. 21, 2012 Rise Set
Actual Time 9:42 AM AKST 4:57 PM AKST
Civil Twilight 8:52 AM AKST 5:46 PM AKST
Nautical Twilight 8:01 AM AKST 6:38 PM AKST
Astronomical Twilight 7:13 AM AKST 7:26 PM AKST
Moon 2:37 PM AKST (11/21) 1:46 AM AKST (11/21)
Length of Visible Light 8h 53m
Length of Day
7h 15m
Waxing Gibbous, 63% of the Moon is Illuminated
Nov 21
Waxing Gibbous
Nov 28
Full
Dec 6
Last Quarter
Dec 12
New
Dec 19
First Quarter

Hourly Weather History & Observations

Time (AKST) Temp. Windchill Dew Point Humidity Pressure Visibility Wind Dir Wind Speed Gust Speed Precip Events Conditions
12:16 AM 6.8 °F -10.7 °F -4.0 °F 61% 29.87 in 10.0 mi NNW 15.0 mph - N/A   Clear
12:36 AM 6.8 °F -12.4 °F -2.2 °F 67% 29.86 in 10.0 mi NNW 18.4 mph 25.3 mph N/A   Clear
12:56 AM 6.8 °F -12.4 °F -2.2 °F 67% 29.86 in 10.0 mi NNW 18.4 mph 24.2 mph N/A   Clear
1:16 AM 8.6 °F -7.7 °F -2.2 °F 62% 29.86 in 10.0 mi NNW 13.8 mph 21.9 mph N/A   Clear
1:36 AM 8.6 °F -6.3 °F -2.2 °F 62% 29.87 in 10.0 mi NNW 11.5 mph - N/A   Clear
1:56 AM 8.6 °F -8.3 °F -2.2 °F 62% 29.86 in 10.0 mi NNW 15.0 mph 21.9 mph N/A   Clear
2:16 AM 8.6 °F -6.3 °F -2.2 °F 62% 29.86 in 10.0 mi NW 11.5 mph - N/A   Clear
2:36 AM 8.6 °F -7.0 °F -2.2 °F 62% 29.86 in 10.0 mi NW 12.7 mph 23.0 mph N/A   Clear
2:56 AM 10.4 °F -4.1 °F -2.2 °F 57% 29.86 in 10.0 mi NW 11.5 mph - N/A   Clear
3:16 AM 8.6 °F -3.7 °F -0.4 °F 67% 29.86 in 10.0 mi NW 8.1 mph - N/A   Clear
3:36 AM 10.4 °F -4.8 °F -0.4 °F 62% 29.85 in 10.0 mi NNW 12.7 mph - N/A   Clear
3:56 AM 8.6 °F -2.6 °F -2.2 °F 62% 29.86 in 10.0 mi NW 6.9 mph - N/A   Clear
4:16 AM 8.6 °F 2.0 °F -2.2 °F 62% 29.86 in 10.0 mi West 3.5 mph - N/A   Clear
4:36 AM 8.6 °F -5.5 °F -0.4 °F 67% 29.86 in 10.0 mi NW 10.4 mph - N/A   Clear
4:56 AM 10.4 °F 2.2 °F -0.4 °F 62% 29.87 in 10.0 mi WNW 4.6 mph - N/A   Clear
5:16 AM 8.6 °F -6.3 °F -0.4 °F 67% 29.85 in 10.0 mi NW 11.5 mph 19.6 mph N/A   Clear
5:36 AM 12.2 °F -2.5 °F 1.4 °F 62% 29.85 in 10.0 mi NW 12.7 mph 19.6 mph N/A   Clear
5:56 AM 12.2 °F 4.3 °F -0.4 °F 57% 29.85 in 10.0 mi West 4.6 mph - N/A   Clear
6:16 AM 8.6 °F 2.0 °F -0.4 °F 67% 29.86 in 10.0 mi WSW 3.5 mph - N/A   Clear
6:36 AM 8.6 °F - -0.4 °F 67% 29.85 in 10.0 mi Calm Calm - N/A   Clear
6:56 AM 8.6 °F -2.6 °F -0.4 °F 67% 29.86 in 10.0 mi WNW 6.9 mph - N/A   Clear
7:16 AM 8.6 °F -1.3 °F -0.4 °F 67% 29.86 in 10.0 mi WSW 5.8 mph - N/A   Clear
7:36 AM 8.6 °F 2.0 °F -0.4 °F 67% 29.86 in 10.0 mi West 3.5 mph - N/A   Clear
7:45 AM 8.6 °F -2.6 °F -2.2 °F 62% 29.87 in 10.0 mi WSW 6.9 mph 12.7 mph N/A   Clear
8:47 AM 10.4 °F 0.8 °F -0.4 °F 62% 29.87 in 15.0 mi West 5.8 mph 12.7 mph N/A   Clear
9:58 AM 10.4 °F -0.4 °F 1.4 °F 67% 29.87 in 40.0 mi SW 6.9 mph - N/A   Clear
10:50 AM 12.2 °F -1.0 °F 1.4 °F 62% 29.87 in 40.0 mi WNW 10.4 mph 19.6 mph N/A   Clear
11:55 AM 15.8 °F 2.1 °F 1.4 °F 53% 29.88 in 40.0 mi WNW 12.7 mph 26.5 mph N/A   Clear
12:56 PM 17.6 °F 1.7 °F 1.4 °F 49% 29.87 in 40.0 mi WNW 18.4 mph 31.1 mph N/A   Clear
1:51 PM 19.4 °F 10.4 °F 3.2 °F 49% 29.87 in 40.0 mi West 6.9 mph 13.8 mph N/A   Clear
2:46 PM 19.4 °F 7.2 °F 1.4 °F 46% 29.86 in 40.0 mi NNW 11.5 mph 21.9 mph N/A   Clear
3:47 PM 17.6 °F 3.2 °F 1.4 °F 49% 29.87 in 40.0 mi WNW 15.0 mph 23.0 mph N/A   Clear
4:48 PM 14.0 °F -2.5 °F -0.4 °F 53% 29.86 in 40.0 mi NW 17.3 mph 23.0 mph N/A   Clear
5:45 PM 14.0 °F -4.7 °F -0.4 °F 53% 29.85 in 20.0 mi NNW 23.0 mph 32.2 mph N/A   Clear
6:46 PM 12.2 °F -3.7 °F -2.2 °F 53% 29.89 in 10.0 mi NNW 15.0 mph 28.8 mph N/A   Clear
7:50 PM 10.4 °F -8.6 °F -2.2 °F 57% 29.89 in 10.0 mi NNW 20.7 mph 38.0 mph N/A   Clear
8:50 PM 10.4 °F -7.2 °F -0.4 °F 62% 29.89 in 10.0 mi NNW 17.3 mph 28.8 mph N/A   Clear
9:30 PM 10.4 °F -6.6 °F -0.4 °F 62% 29.90 in 10.0 mi NNW 16.1 mph 28.8 mph N/A   Clear
9:56 PM 10.4 °F -6.6 °F -2.2 °F 57% 29.89 in 10.0 mi NNW 16.1 mph 21.9 mph N/A   Clear
10:16 PM 10.4 °F -6.6 °F -0.4 °F 62% 29.90 in 10.0 mi NNW 16.1 mph 20.7 mph N/A   Clear
10:36 PM 10.4 °F -8.2 °F -0.4 °F 62% 29.89 in 10.0 mi NNW 19.6 mph 25.3 mph N/A   Clear
10:56 PM 10.4 °F -9.9 °F -2.2 °F 57% 29.90 in 10.0 mi NNW 24.2 mph 31.1 mph N/A   Clear
11:16 PM 10.4 °F -9.1 °F -2.2 °F 57% 29.90 in 10.0 mi NNW 21.9 mph 33.4 mph N/A   Clear
11:36 PM 8.6 °F -10.0 °F -0.4 °F 67% 29.90 in 10.0 mi NNW 18.4 mph 28.8 mph N/A   Clear
11:56 PM 8.6 °F -10.0 °F -0.4 °F 67% 29.90 in 10.0 mi NNW 18.4 mph 28.8 mph N/A   Clear